Regional Weather Roundup
Issued by NWS Cleveland, OH

Home | Current Version | Previous Version | Text Only | Print | Product List | Glossary Off
Versions: 1 2 3 4 5 6 7 8 9 10 11 12 13 14 15 16 17 18 19 20 21 22 23 24 25 26 27 28 29 30 31 32 33 34 35 36 37 38 39 40 41 42 43 44 45 46 47 48 49 50

000
ASUS41 KCLE 110702
RWRCLE
OHIO REGIONAL WEATHER ROUNDUP
NATIONAL WEATHER SERVICE CLEVELAND, OH
300 AM EDT FRI JUL 11 2014

NOTE: "FAIR" INDICATES FEW OR NO CLOUDS BELOW 12,000 FEET WITH NO
SIGNIFICANT WEATHER AND/OR OBSTRUCTIONS TO VISIBILITY.

OHZ001>008-015>018-024>027-034-035-043-044-110800-
   NORTHWEST OHIO

CITY           SKY/WX    TMP DP  RH WIND       PRES   REMARKS
DEFIANCE       CLEAR     59  55  87 CALM      30.20S
FINDLAY        CLEAR     62  57  83 CALM      30.19S
TOLEDO EXPRESS CLEAR     59  56  89 CALM      30.20S
TOLEDO EXEC    CLEAR     61  56  83 CALM      30.21R
LIMA           CLEAR     62  57  83 CALM      30.20S
$$

OHZ009>014-019>023-028>033-038-089-110800-
   NORTHEAST OHIO

CITY           SKY/WX    TMP DP  RH WIND       PRES   REMARKS
CLE-HOPKINS    PTCLDY    61  56  83 CALM      30.21R
CLE-LAKEFRONT  CLEAR     66  57  72 CALM      30.18R
CUY CO. ARPT   NOT AVBL
LORAIN-ELYRIA  CLEAR     61  56  83 CALM      30.20S
ASHTABULA      PTCLDY    56  53  90 CALM      30.20S
AKRON-CANTON   PTCLDY    62  55  77 N5        30.19R
WOOSTER        PTCLDY    61  56  83 N3        30.20S
MANSFIELD      CLEAR     58  56  93 CALM      30.20S
YOUNGSTOWN     PTCLDY    62  55  77 CALM      30.18S
$$

OHZ042-051>053-060>062-070>072-077>081-110800-
  SOUTHWEST OHIO

CITY           SKY/WX    TMP DP  RH WIND       PRES   REMARKS
CINC-COVINGTON CLEAR     66  55  67 N5        30.18S
CINC-LUNKEN    CLEAR     60  59  96 CALM      30.18F
HAMILTON       CLEAR     58  56  93 CALM      30.19S
DAYTON         CLEAR     62  55  77 N3        30.20F
WRIGHT-PAT AFB CLEAR     62  57  86 NE2       30.19S
DAYTON GENERAL CLEAR     62  55  77 NE5       30.18F
WILMINGTON     CLEAR     59  55  87 NE5       30.19R
$$

OHZ036-037-039>041-045>050-054>059-063>069-073>076-082>088-110800-
  CENTRAL AND SOUTHEAST OHIO

CITY           SKY/WX    TMP DP  RH WIND       PRES   REMARKS
COLUMBUS       PTCLDY    68  58  70 CALM      30.17S
OSU AIRPORT    CLEAR     62  57  83 NW3       30.18S
BOLTON FIELD   CLEAR     60  57  91 NW3       30.19S
RICKENBACK AFB CLEAR     67  55  66 CALM      30.17S
NEWARK         CLEAR     62  59  90 CALM      30.17S
MARION         CLEAR     60  56  86 CALM      30.20R
LANCASTER      CLEAR     60  57  89 CALM      30.18R
ZANESVILLE     PTCLDY    63  59  87 CALM      30.17R
NEW PHILLY     MOCLDY    63  60  90 CALM      30.18R
$$


USA.gov is the U.S. government's official web portal to all federal, state and local government web resources and services.